DM5RC Weather Reports


Display with metric or nautical units.
time (UTC)temp
F
wind
direction
speed
MPH
gust
MPH
rain 1hr
in
rain 24hr
in
rain mn
in
humidity
%
barometer
mb
20260508071315 48 49 3.0 7.0 0.00 1.77 0.02 92 1019.0
20260508070819 48 31 2.0 7.0 0.00 1.77 0.02 92 1018.9
20260508070322 48 46 3.0 5.0 0.00 1.77 0.02 92 1018.9
20260508065824 48 68 3.0 7.0 0.00 1.81 0.02 92 1018.9
20260508065343 47 45 4.0 7.0 0.00 1.81 0.02 92 1018.8
20260508064823 48 39 3.0 7.0 0.00 1.81 0.02 93 1018.7
20260508064346 48 51 2.0 7.0 0.00 1.81 0.02 93 1018.7
20260508063819 47 23 1.0 6.0 0.00 1.81 0.02 93 1018.6
20260508063321 47 61 2.0 7.0 0.00 1.81 0.02 93 1018.6
20260508062821 47 46 4.0 7.0 0.00 1.81 0.02 93 1018.6
20260508062321 47 36 4.0 7.0 0.00 1.81 0.02 93 1018.5
20260508061822 47 47 2.0 6.0 0.00 1.81 0.02 94 1018.5
20260508061322 47 33 2.0 6.0 0.00 1.81 0.02 93 1018.5
20260508060823 47 62 4.0 8.0 0.00 1.81 0.02 93 1018.4
20260508060346 47 358 4.0 8.0 0.00 1.81 0.02 93 1018.4
20260508055824 47 56 3.0 7.0 0.00 1.81 0.02 93 1018.4
20260508055346 47 82 3.0 6.0 0.00 1.81 0.02 94 1018.4
20260508054828 47 49 2.0 7.0 0.00 1.81 0.02 94 1018.3
20260508054331 46 354 2.0 7.0 0.00 1.81 0.02 94 1018.3
20260508053833 46 65 3.0 8.0 0.00 1.81 0.02 94 1018.2
20260508053313 46 18 3.0 7.0 0.00 1.81 0.02 93 1018.2
20260508052813 46 37 4.0 7.0 0.00 1.81 0.02 94 1018.2
20260508052312 46 46 2.0 8.0 0.00 1.81 0.02 94 1018.2
20260508051833 46 26 4.0 8.0 0.00 1.81 0.02 94 1018.2
20260508051314 46 44 3.0 6.0 0.00 1.81 0.02 93 1018.2
20260508050813 46 42 3.0 8.0 0.00 1.81 0.02 93 1018.3
20260508050330 46 34 3.0 8.0 0.00 1.81 0.02 93 1018.2
20260508045831 46 64 2.0 8.0 0.00 1.89 0.02 93 1018.2
20260508045314 46 51 5.0 8.0 0.00 1.89 0.02 93 1018.1
20260508044816 46 50 5.0 8.0 0.00 1.89 0.02 93 1018.1
20260508044338 46 44 4.0 8.0 0.00 1.89 0.02 93 1018.1
20260508043820 46 51 3.0 8.0 0.00 1.89 0.02 93 1018.0
20260508043343 46 44 3.0 8.0 0.00 1.89 0.02 93 1018.0
20260508042844 46 31 4.0 8.0 0.00 1.89 0.02 93 1018.0
20260508042325 46 49 2.0 6.0 0.00 1.89 0.02 93 1017.9
20260508041829 46 13 3.0 9.0 0.00 1.89 0.02 93 1017.8
20260508041331 46 53 3.0 7.0 0.00 1.89 0.02 93 1017.7
20260508040835 46 57 2.0 5.0 0.00 1.89 0.02 93 1017.7
20260508040317 46 61 2.0 7.0 0.00 1.89 0.02 93 1017.7
20260508035818 46 58 3.0 8.0 0.00 2.09 0.02 93 1017.7
20260508035318 46 18 4.0 8.0 0.00 2.09 0.02 93 1017.7
20260508034822 46 52 3.0 8.0 0.00 2.09 0.02 93 1017.6
20260508034325 46 46 3.0 9.0 0.00 2.09 0.02 94 1017.7
20260508033828 46 39 4.0 9.0 0.00 2.09 0.02 94 1017.6
20260508033352 46 25 1.0 6.0 0.00 2.09 0.02 94 1017.7
20260508032813 46 20 2.0 7.0 0.00 2.09 0.02 94 1017.6
20260508032315 46 337 2.0 8.0 0.00 2.09 0.02 94 1017.6
20260508031837 46 53 2.0 6.0 0.00 2.09 0.02 94 1017.6
20260508031319 46 42 3.0 7.0 0.00 2.09 0.02 94 1017.5
20260508030824 46 61 2.0 7.0 0.00 2.09 0.02 94 1017.5
20260508030348 46 61 3.0 7.0 0.00 2.09 0.02 94 1017.5
20260508025824 46 59 3.0 8.0 0.00 2.36 0.02 94 1017.6
20260508025348 46 45 4.0 8.0 0.00 2.36 0.02 94 1017.5
20260508024830 46 41 3.0 8.0 0.00 2.36 0.02 94 1017.5
20260508024314 46 25 3.0 8.0 0.00 2.36 0.02 94 1017.5
20260508023817 46 57 2.0 8.0 0.00 2.36 0.02 94 1017.5
20260508023319 46 357 2.0 7.0 0.00 2.36 0.02 94 1017.5
20260508022822 46 31 3.0 6.0 0.00 2.36 0.02 94 1017.5
20260508022344 46 43 1.0 6.0 0.00 2.36 0.02 94 1017.5
20260508021825 46 18 2.0 5.0 0.00 2.36 0.02 94 1017.5
20260508021325 46 14 2.0 5.0 0.00 2.36 0.02 94 1017.5
20260508020827 46 340 2.0 5.0 0.00 2.36 0.02 94 1017.5
20260508020314 46 9 2.0 5.0 0.00 2.36 0.02 94 1017.4
20260508015816 46 2 2.0 5.0 0.00 2.60 0.02 94 1017.4
20260508015335 46 24 2.0 6.0 0.00 2.60 0.02 94 1017.4
20260508014816 46 62 2.0 7.0 0.00 2.60 0.02 94 1017.5
20260508014320 46 32 3.0 7.0 0.00 2.60 0.02 94 1017.4
20260508013851 46 55 2.0 4.0 0.00 2.60 0.02 94 1017.4
20260508013314 46 29 1.0 6.0 0.00 2.60 0.02 94 1017.4
20260508012818 46 55 2.0 5.0 0.00 2.60 0.02 94 1017.3
20260508012320 46 57 2.0 8.0 0.00 2.60 0.02 94 1017.3
20260508011822 46 47 4.0 8.0 0.00 2.60 0.02 94 1017.2
20260508011325 46 48 2.0 8.0 0.00 2.60 0.02 94 1017.3
20260508010827 46 31 3.0 8.0 0.00 2.60 0.02 94 1017.2
20260508010328 46 39 2.0 7.0 0.00 2.60 0.02 95 1017.2
20260508005850 46 58 2.0 7.0 0.00 2.60 0.02 94 1017.2
20260508005314 46 7 2.0 6.0 0.00 2.60 0.02 95 1017.2
20260508004845 46 20 3.0 7.0 0.00 2.60 0.02 95 1017.2
20260508004326 46 51 3.0 7.0 0.00 2.60 0.02 95 1017.2
20260508003829 46 34 4.0 7.0 0.00 2.60 0.02 95 1017.1
20260508003330 46 8 3.0 7.0 0.04 2.60 0.02 95 1017.2
20260508002831 46 75 4.0 7.0 0.04 2.60 0.02 95 1017.2
20260508002351 46 8 3.0 7.0 0.04 2.60 0.02 95 1017.2
20260508001830 46 7 3.0 7.0 0.04 2.60 0.02 95 1017.3
20260508001324 46 36 2.0 6.0 0.04 2.60 0.02 95 1017.3
20260508000845 46 54 3.0 6.0 0.04 2.60 0.02 95 1017.3
20260508000327 46 34 2.0 5.0 0.04 2.60 0.02 95 1017.3
20260507235847 46 40 2.0 6.0 0.04 2.60 0.02 95 1017.3
20260507235347 46 76 3.0 6.0 0.04 2.60 0.02 95 1017.3
20260507234826 46 34 3.0 5.0 0.04 2.60 0.02 95 1017.4
20260507234326 46 45 3.0 5.0 0.04 2.60 0.02 95 1017.5
20260507233827 46 53 2.0 5.0 0.04 2.60 0.02 95 1017.5
20260507233350 46 31 1.0 5.0 0.00 2.56 0.01 95 1017.4
20260507232851 46 51 2.0 5.0 0.00 2.56 0.01 95 1017.5
20260507232353 46 54 2.0 5.0 0.00 2.56 0.01 95 1017.5
20260507231814 46 68 2.0 6.0 0.00 2.56 0.01 95 1017.4
20260507231339 46 60 3.0 6.0 0.04 2.56 0.01 95 1017.4
20260507230821 46 50 3.0 6.0 0.04 2.56 0.01 95 1017.5
20260507230324 46 56 1.0 6.0 0.04 2.56 0.01 95 1017.6
20260507225828 46 54 2.0 6.0 0.08 2.56 0.01 95 1017.5
20260507225351 46 61 3.0 6.0 0.08 2.56 0.01 95 1017.5
20260507224813 46 55 2.0 5.0 0.08 2.56 0.01 95 1017.5
20260507223828 46 44 2.0 6.0 0.08 2.56 0.01 95 1017.5
20260507223332 46 51 3.0 6.0 0.08 2.56 0.01 94 1017.5
20260507222814 46 50 2.0 7.0 0.08 2.56 0.01 94 1017.5
20260507222317 46 64 3.0 7.0 0.08 2.56 0.01 94 1017.5
20260507221820 46 60 2.0 7.0 0.04 2.52 0.00 94 1017.5
20260507221343 46 39 2.0 7.0 0.04 2.52 0.00 94 1017.4
20260507220823 46 47 3.0 6.0 0.04 2.52 0.00 94 1017.4
20260507220324 46 65 3.0 6.0 0.04 2.52 0.00 93 1017.4
20260507215826 47 30 3.0 9.0 0.00 2.48 0.50 93 1017.4
20260507215329 47 58 4.0 9.0 0.00 2.48 0.50 93 1017.4
20260507214852 47 54 2.0 6.0 0.00 2.48 0.50 93 1017.3
20260507214314 47 65 2.0 7.0 0.00 2.48 0.50 93 1017.4
20260507213830 47 36 4.0 7.0 0.00 2.48 0.50 93 1017.4
20260507213313 47 61 3.0 7.0 0.00 2.48 0.50 93 1017.3
20260507212815 47 13 2.0 7.0 0.00 2.48 0.50 94 1017.2
20260507212318 47 59 4.0 7.0 0.00 2.48 0.50 94 1017.2
20260507211824 47 9 3.0 9.0 0.00 2.48 0.50 94 1017.1
20260507211328 47 46 4.0 9.0 0.00 2.48 0.50 94 1017.2
20260507210831 47 57 3.0 6.0 0.00 2.48 0.50 94 1017.1
20260507210352 47 46 3.0 7.0 0.00 2.48 0.50 94 1017.0
20260507205812 47 68 5.0 7.0 0.00 2.48 0.50 94 1017.0
20260507205334 47 41 3.0 6.0 0.00 2.48 0.50 94 1016.9
20260507204847 47 37 3.0 5.0 0.00 2.48 0.50 94 1016.9
20260507204327 47 37 2.0 5.0 0.00 2.48 0.50 94 1016.9
20260507203818 47 52 2.0 6.0 0.00 2.48 0.50 94 1016.8
20260507203319 47 57 2.0 6.0 0.00 2.48 0.50 94 1016.8
20260507202822 46 25 4.0 8.0 0.00 2.48 0.50 94 1016.8
20260507202322 46 51 4.0 8.0 0.00 2.48 0.50 94 1016.7
20260507201825 47 345 3.0 8.0 0.00 2.48 0.50 94 1016.7
20260507201313 47 39 4.0 8.0 0.00 2.48 0.50 94 1016.7
20260507200816 46 53 5.0 8.0 0.00 2.48 0.50 94 1016.7
20260507200336 47 45 3.0 8.0 0.00 2.48 0.50 95 1016.6
20260507195817 46 47 3.0 8.0 0.00 2.48 0.50 94 1016.6
20260507195318 46 27 3.0 8.0 0.00 2.48 0.50 95 1016.5
20260507194819 47 23 4.0 8.0 0.04 2.48 0.50 95 1016.5
20260507194320 47 51 3.0 7.0 0.04 2.48 0.50 95 1016.5
20260507193840 47 53 3.0 6.0 0.04 2.48 0.50 95 1016.5
20260507193319 47 51 3.0 6.0 0.04 2.48 0.50 95 1016.4
20260507192819 47 60 2.0 8.0 0.04 2.48 0.50 95 1016.3
20260507192339 47 47 2.0 8.0 0.04 2.48 0.50 95 1016.3
20260507191840 47 56 3.0 5.0 0.04 2.48 0.50 95 1016.2
20260507191320 47 46 3.0 5.0 0.04 2.48 0.50 95 1016.2
20260507190823 47 23 3.0 5.0 0.04 2.48 0.50 95 1016.1
20260507190325 47 3 1.0 5.0 0.04 2.48 0.50 95 1016.0
20260507185828 47 17 1.0 6.0 0.04 2.48 0.50 95 1015.9
20260507185330 47 29 3.0 6.0 0.04 2.48 0.50 95 1015.9
20260507184831 47 58 3.0 6.0 0.00 2.44 0.49 94 1015.9
20260507184331 47 1 3.0 5.0 0.00 2.44 0.49 95 1015.8
20260507183832 47 51 3.0 8.0 0.00 2.44 0.49 95 1015.7
20260507183314 47 32 4.0 8.0 0.00 2.44 0.49 95 1015.7
20260507182814 47 19 3.0 8.0 0.04 2.44 0.49 95 1015.6
20260507182316 47 67 3.0 8.0 0.04 2.44 0.49 95 1015.6
20260507181817 47 29 3.0 8.0 0.04 2.44 0.49 95 1015.5
20260507180828 47 56 4.0 7.0 0.08 2.44 0.49 95 1015.4
20260507180329 47 49 3.0 7.0 0.08 2.44 0.49 95 1015.4
20260507175850 47 336 3.0 7.0 0.08 2.44 0.49 95 1015.5
20260507175332 47 56 2.0 10.0 0.12 2.44 0.49 95 1015.4
20260507174834 47 51 5.0 10.0 0.12 2.44 0.49 95 1015.3
20260507174339 47 18 3.0 10.0 0.16 2.44 0.49 95 1015.3
20260507173819 47 33 4.0 9.0 0.20 2.44 0.49 95 1015.2
20260507173320 47 9 3.0 9.0 0.28 2.44 0.49 95 1015.1
20260507172841 47 359 3.0 11.0 0.28 2.40 0.48 95 1015.0
20260507172321 47 76 5.0 12.0 0.31 2.40 0.48 94 1015.0
20260507171821 47 8 6.0 12.0 0.35 2.40 0.48 94 1015.0
20260507171322 47 39 5.0 10.0 0.35 2.40 0.48 95 1015.0
20260507170822 47 34 5.0 13.0 0.39 2.36 0.47 95 1014.9
20260507170324 47 333 6.0 13.0 0.43 2.36 0.47 94 1014.9
20260507165825 47 30 4.0 8.0 0.43 2.36 0.47 95 1014.9
20260507165325 47 40 4.0 8.0 0.43 2.32 0.46 95 1014.9
20260507164826 47 44 5.0 8.0 0.43 2.32 0.46 95 1014.8
20260507164328 47 15 5.0 9.0 0.39 2.28 0.46 94 1014.7
20260507163831 47 20 6.0 9.0 0.39 2.24 0.45 94 1014.8
20260507163312 47 2 4.0 8.0 0.31 2.17 0.43 94 1014.8
20260507162833 47 13 3.0 10.0 0.31 2.13 0.43 94 1014.8
20260507162334 47 2 4.0 10.0 0.31 2.09 0.42 93 1014.7
20260507161814 47 47 3.0 8.0 0.28 2.05 0.41 94 1014.6
20260507161315 47 52 4.0 11.0 0.28 2.01 0.40 93 1014.6
20260507160818 47 352 6.0 11.0 0.24 1.97 0.39 93 1014.7
20260507160321 48 331 5.0 10.0 0.20 1.93 0.39 93 1014.7
20260507155824 48 37 4.0 10.0 0.20 1.93 0.39 93 1014.7
20260507155327 48 46 4.0 8.0 0.16 1.89 0.38 93 1014.6
20260507154829 48 344 4.0 8.0 0.16 1.89 0.38 93 1014.5
20260507154349 48 20 3.0 8.0 0.16 1.89 0.38 93 1014.5
20260507153849 48 328 3.0 8.0 0.12 1.85 0.37 92 1014.5
20260507153329 48 27 4.0 8.0 0.12 1.85 0.37 92 1014.4
20260507152831 48 350 3.0 11.0 0.08 1.81 0.36 92 1014.4
20260507152314 48 32 4.0 9.0 0.04 1.77 0.35 91 1014.4
20260507151816 48 56 3.0 8.0 0.04 1.77 0.35 91 1014.5
20260507151319 48 29 2.0 7.0 0.00 1.73 0.35 91 1014.5
20260507150822 48 53 3.0 7.0 0.00 1.73 0.35 90 1014.5
20260507150325 48 42 2.0 9.0 0.00 1.73 0.35 90 1014.5
20260507145830 48 36 4.0 11.0 0.00 1.73 0.35 89 1014.4
20260507145334 49 11 4.0 11.0 0.00 1.73 0.35 89 1014.4
20260507144817 49 18 5.0 9.0 0.00 1.73 0.35 89 1014.4
20260507144321 49 16 5.0 8.0 0.00 1.73 0.35 88 1014.3
20260507143827 49 352 3.0 8.0 0.00 1.73 0.35 88 1014.4
20260507143330 49 19 4.0 7.0 0.00 1.73 0.35 88 1014.4
20260507142814 49 44 3.0 10.0 0.00 1.73 0.35 88 1014.3
20260507142319 49 51 5.0 10.0 0.00 1.73 0.35 88 1014.3
20260507141823 49 43 5.0 8.0 0.00 1.73 0.35 89 1014.3
20260507141325 49 70 3.0 6.0 0.00 1.73 0.35 88 1014.3
20260507140830 49 117 3.0 10.0 0.00 1.73 0.35 88 1014.2
20260507140345 49 23 5.0 8.0 0.00 1.73 0.35 88 1014.2
20260507135827 49 47 3.0 9.0 0.00 1.73 0.35 89 1014.2
20260507135329 49 354 4.0 9.0 0.00 1.73 0.35 88 1014.1
20260507134813 49 50 3.0 9.0 0.00 1.73 0.35 88 1014.0
20260507134344 49 46 2.0 8.0 0.00 1.73 0.35 88 1014.1
20260507133846 49 63 4.0 10.0 0.00 1.73 0.35 89 1014.0
20260507133328 49 51 5.0 10.0 0.00 1.73 0.35 88 1013.9
20260507132831 49 44 4.0 10.0 0.00 1.73 0.35 89 1013.8
20260507132314 49 51 5.0 11.0 0.00 1.73 0.35 88 1013.8
20260507131817 49 48 6.0 11.0 0.00 1.73 0.35 88 1013.8
20260507131320 49 39 4.0 9.0 0.00 1.73 0.35 88 1013.7
20260507130823 49 61 5.0 9.0 0.00 1.73 0.35 88 1013.7
20260507130326 49 73 4.0 8.0 0.00 1.73 0.35 89 1013.5
20260507125827 49 334 4.0 9.0 0.00 1.73 0.35 89 1013.5
20260507125327 49 50 5.0 10.0 0.00 1.73 0.35 89 1013.4
20260507124829 49 39 5.0 16.0 0.00 1.73 0.35 89 1013.4
20260507124349 49 338 6.0 16.0 0.00 1.73 0.35 89 1013.4
20260507123849 49 51 4.0 10.0 0.00 1.73 0.35 89 1013.3
20260507123327 49 59 5.0 10.0 0.00 1.73 0.35 89 1013.2
20260507122829 49 49 4.0 11.0 0.00 1.73 0.35 89 1013.2
20260507122341 49 40 6.0 12.0 0.00 1.73 0.35 89 1013.2
20260507121822 50 348 3.0 10.0 0.00 1.73 0.35 91 1013.1
20260507121324 49 57 3.0 10.0 0.00 1.73 0.35 90 1013.1
20260507120827 49 14 5.0 11.0 0.00 1.73 0.35 90 1013.1
20260507120314 48 59 6.0 11.0 0.00 1.73 0.35 90 1013.0
20260507115836 48 48 6.0 10.0 0.00 1.73 0.35 91 1013.0
20260507115321 48 43 5.0 10.0 0.00 1.73 0.35 91 1013.0
20260507114826 48 56 6.0 10.0 0.00 1.73 0.35 91 1013.1
20260507114313 48 295 4.0 10.0 0.00 1.73 0.35 91 1013.0
20260507113816 48 46 4.0 10.0 0.00 1.73 0.35 91 1013.0
20260507113335 48 349 5.0 9.0 0.00 1.73 0.35 91 1012.9
20260507112815 48 53 4.0 9.0 0.00 1.73 0.35 92 1012.8
20260507112320 48 57 5.0 12.0 0.00 1.73 0.35 92 1012.8
20260507111825 48 45 7.0 12.0 0.00 1.73 0.35 92 1012.8
20260507111314 48 65 5.0 11.0 0.04 1.73 0.35 93 1012.9
20260507110816 48 70 5.0 11.0 0.08 1.73 0.35 94 1012.8
20260507110335 48 27 6.0 11.0 0.12 1.73 0.35 94 1012.7
20260507105817 48 341 5.0 11.0 0.20 1.73 0.35 94 1012.8
20260507105318 48 44 5.0 11.0 0.24 1.73 0.35 94 1012.7
20260507104818 48 43 4.0 9.0 0.28 1.73 0.35 95 1012.7
20260507104339 48 58 5.0 9.0 0.31 1.73 0.35 95 1012.7
20260507103818 48 79 4.0 10.0 0.31 1.73 0.35 95 1012.6
20260507103319 48 319 4.0 10.0 0.35 1.73 0.35 95 1012.6
20260507102824 48 37 6.0 11.0 0.39 1.73 0.35 95 1012.5
20260507102339 48 52 4.0 11.0 0.43 1.73 0.35 95 1012.5
20260507101822 48 16 4.0 7.0 0.47 1.73 0.35 95 1012.6
20260507101324 47 75 4.0 8.0 0.43 1.69 0.34 95 1012.6
20260507100828 47 58 5.0 8.0 0.43 1.65 0.33 95 1012.5
20260507100349 47 53 3.0 7.0 0.43 1.61 0.32 95 1012.5
20260507095829 47 352 3.0 7.0 0.43 1.54 0.31 95 1012.5
20260507095330 47 41 3.0 7.0 0.43 1.50 0.30 95 1012.4
20260507094833 47 33 3.0 7.0 0.47 1.46 0.29 94 1012.4
20260507094315 47 38 4.0 8.0 0.47 1.42 0.28 95 1012.4
20260507093817 47 54 5.0 10.0 0.47 1.38 0.28 94 1012.3
20260507093316 47 40 4.0 10.0 0.47 1.34 0.27 95 1012.2
20260507092817 46 65 3.0 10.0 0.47 1.34 0.27 94 1012.1
20260507092316 46 32 5.0 10.0 0.43 1.30 0.26 94 1012.1
20260507091324 47 63 3.0 9.0 0.43 1.26 0.25 94 1012.1
20260507090826 46 34 3.0 8.0 0.39 1.22 0.24 94 1012.1
20260507090328 47 57 4.0 8.0 0.35 1.18 0.24 94 1012.0
20260507085831 46 353 4.0 11.0 0.28 1.10 0.22 94 1011.9
20260507085332 46 30 6.0 11.0 0.20 1.02 0.20 94 1011.8
20260507084835 46 355 4.0 9.0 0.16 0.98 0.20 94 1011.8
20260507084336 46 27 3.0 9.0 0.12 0.94 0.19 94 1011.8
20260507083817 46 34 4.0 9.0 0.08 0.91 0.18 94 1011.7
20260507083319 46 60 4.0 11.0 0.04 0.87 0.17 93 1011.6
20260507082820 46 18 5.0 11.0 0.04 0.87 0.17 93 1011.6
20260507082321 47 43 5.0 10.0 0.04 0.87 0.17 94 1011.5
20260507081844 47 15 5.0 11.0 0.00 0.83 0.17 93 1011.4
20260507081326 46 43 4.0 11.0 0.00 0.83 0.17 93 1011.3
20260507080830 47 76 5.0 9.0 0.00 0.83 0.17 93 1011.2
20260507080314 47 42 4.0 13.0 0.00 0.83 0.17 94 1011.2
20260507075816 47 6 6.0 13.0 0.00 0.83 0.17 93 1011.2
20260507075320 46 73 6.0 11.0 0.00 0.83 0.17 93 1011.1
20260507074822 46 73 7.0 12.0 0.00 0.83 0.17 93 1011.1
20260507074325 47 58 4.0 9.0 0.00 0.83 0.17 94 1011.1
20260507073845 47 33 4.0 9.0 0.00 0.83 0.17 94 1011.0
20260507073324 46 52 4.0 9.0 0.04 0.83 0.17 94 1011.0
20260507072847 46 47 5.0 10.0 0.04 0.83 0.17 94 1011.0
20260507072323 46 56 5.0 10.0 0.04 0.83 0.17 94 1010.9
20260507071818 46 6 5.0 10.0 0.04 0.83 0.17 94 1010.8